{"data":{"norad_id":59452,"intl_designator":"2024-066L","name":"KORSAT-1","alt_names":[],"object_type":"PAYLOAD","status":"ACTIVE","operator":null,"country":"SKOR","launch_date":"2024-04-07","launch_site_code":"AFETR","launch_vehicle":null,"mission":null,"orbit_class":"UNKNOWN","rcs_meters":null,"size_class":null,"mass_kg":null,"dimensions":null,"purposes":[],"wikipedia_slug":null,"has_3d_model":false,"image_url":null,"decayed_at":null,"tle_current":{"epoch":"2026-09-22T21:47:27.646368Z","epoch_age_seconds":55535,"freshness":"FRESH","line1":"1 59452U 24066L   26265.90795887  .00001835  00000+0  16941-3 0  9997","line2":"2 59452  45.4119  97.9355 0006613 232.9299 127.0975 14.98613517134713","mean_motion":14.98613517,"eccentricity":0.0006613,"inclination_deg":45.4119,"raan_deg":97.9355,"arg_perigee_deg":232.9299,"mean_anomaly_deg":127.0975,"bstar":0.00016941,"rev_number":13471,"period_min":96.088817007514,"perigee_km":566.58369338338,"apogee_km":575.77485909033,"semimajor_km":6949.3162762369,"source":"CELESTRAK","updated_at":"2026-09-23T09:00:19.377082Z"}}}